Temperature
6 6 6 7 7 7 7 7 8 8 8 8 8 8 8 8 8 8 8 8 8 8 8 8 8 9 9 9 9 9 9 9 9 9 9 10 10 10 9 9 9 9 8
5 6 6 6 6 7 7 7 7 7 7 7 7 7 7 7 7 7 8 8 8 8 8 8 8 8 8 8 8 8 8 8 8 9 9 9 9 9 9 9 8 8 8
5 5 6 6 6 6 6 6 6 7 7 7 7 7 7 7 7 7 7 7 7 7 7 8 8 8 8 8 8 8 8 8 8 8 8 9 9 9 8 8 8 8 7
4 5 5 5 5 5 6 6 6 6 6 6 6 6 6 6 6 6 6 6 6 7 7 7 7 7 8 8 7 7 7 7 8 8 8 8 8 8 8 7 7 7 7
4 4 4 4 4 5 5 5 5 5 5 5 5 5 5 6 6 6 6 6 6 6 6 6 7 7 7 7 7 7 7 7 7 7 7 7 7 7 7 7 7 6 6
3 3 3 3 4 4 4 4 4 5 5 5 5 5 5 5 5 5 5 5 5 6 6 6 6 6 6 6 7 7 6 7 7 7 7 7 7 7 7 7 6 6 5
3 3 3 3 3 3 3 3 4 4 4 4 4 4 4 4 4 5 5 5 5 5 5 5 5 6 6 6 6 6 6 6 6 6 6 6 6 7 6 6 6 6 6
2 2 2 3 3 3 3 3 3 3 3 3 4 4 4 4 4 4 4 4 4 4 5 5 5 5 5 5 5 5 5 6 6 6 6 6 6 6 6 6 6 5 5
2 2 2 2 2 2 2 2 3 3 3 3 3 3 3 3 3 3 3 3 4 4 4 4 4 4 4 5 5 5 5 5 5 5 5 5 6 6 6 5 5 4 4
2 2 2 2 2 2 2 2 2 2 2 2 2 2 2 3 3 3 3 3 3 3 3 4 4 4 4 4 4 4 4 4 4 5 5 5 5 5 5 5 5 4 4
1 1 1 2 2 1 1 1 1 2 2 2 2 2 2 2 2 2 2 2 2 2 3 3 3 3 3 4 4 4 4 4 4 4 4 4 4 4 4 4 4 4 4
1 1 1 1 1 1 1 1 1 1 1 1 1 1 1 1 2 2 2 2 2 2 2 2 3 3 3 3 3 3 3 3 3 3 3 3 3 3 3 3 3 3 3
1 1 0 0 0 0 0 0 0 1 1 0 0 0 0 1 1 1 1 1 1 1 1 2 2 2 2 2 2 2 2 2 2 2 2 2 2 2 2 2 2 2 2
0 0 -0 -0 -0 -0 -0 -0 -0 -0 -0 -0 -0 -0 -0 -0 -0 0 0 0 1 1 1 1 1 2 1 1 1 1 1 1 1 1 1 1 1 1 1 1 1 1 1
-0 -0 -1 -1 -1 -1 -1 -1 -1 -1 -1 -1 -1 -1 -1 -1 -1 -1 -1 -0 -0 0 0 0 1 1 1 1 1 1 1 1 1 1 1 1 1 1 1 1 1 1 1
-1 -1 -1 -1 -1 -1 -2 -1 -1 -1 -1 -1 -2 -2 -2 -2 -1 -1 -1 -1 -1 -1 -0 -0 -0 -0 -0 -0 -0 -0 -0 -0 0 0 0 0 0 0 0 -0 -0 -0 0
-1 -2 -2 -2 -2 -2 -2 -2 -2 -2 -2 -2 -2 -2 -2 -2 -2 -2 -1 -1 -1 -1 -1 -1 -1 -1 -1 -1 -1 -1 -1 -1 -1 -0 -0 -0 -0 -1 -1 -1 -1 -1 -1
-2 -2 -2 -2 -2 -2 -2 -2 -3 -3 -3 -3 -2 -3 -3 -2 -2 -2 -2 -2 -2 -2 -2 -2 -2 -2 -2 -2 -2 -2 -1 -1 -1 -1 -1 -1 -1 -1 -1 -1 -1 -1 -1
-2 -2 -2 -3 -3 -3 -3 -3 -3 -3 -3 -3 -3 -3 -3 -3 -3 -3 -3 -3 -3 -3 -3 -3 -3 -3 -2 -2 -2 -2 -2 -2 -2 -2 -2 -2 -2 -2 -2 -2 -2 -2 -2
-3 -3 -3 -3 -3 -3 -3 -4 -4 -4 -4 -4 -4 -4 -4 -4 -4 -4 -4 -4 -4 -4 -4 -4 -3 -3 -3 -3 -3 -3 -3 -3 -3 -3 -3 -3 -3 -3 -3 -3 -3 -3 -3
-3 -3 -3 -4 -4 -4 -4 -4 -4 -5 -5 -5 -5 -5 -5 -5 -4 -4 -4 -4 -4 -4 -4 -4 -4 -4 -4 -4 -3 -3 -3 -3 -3 -3 -3 -3 -3 -3 -3 -3 -3 -4 -4
-3 -3 -4 -4 -4 -4 -5 -5 -5 -5 -5 -5 -5 -5 -5 -5 -5 -5 -5 -5 -5 -5 -5 -5 -4 -4 -4 -4 -4 -4 -4 -4 -4 -4 -4 -4 -4 -4 -4 -4 -4 -4 -4
-4 -4 -4 -4 -4 -5 -5 -5 -5 -5 -6 -6 -6 -5 -5 -5 -5 -5 -5 -5 -5 -5 -5 -5 -5 -5 -5 -5 -4 -4 -4 -4 -4 -4 -4 -4 -4 -5 -4 -4 -4 -4 -4
-4 -4 -4 -5 -5 -5 -5 -6 -6 -6 -6 -6 -6 -6 -6 -6 -6 -6 -6 -6 -6 -6 -5 -5 -5 -5 -5 -5 -5 -5 -5 -5 -5 -4 -4 -4 -5 -5 -5 -5 -5 -5 -5
-4 -5 -5 -5 -5 -5 -6 -6 -6 -6 -6 -6 -6 -6 -6 -6 -6 -6 -6 -6 -6 -6 -6 -6 -6 -6 -6 -6 -5 -5 -5 -5 -5 -5 -5 -5 -5 -5 -5 -5 -5 -5 -5
-5 -5 -5 -5 -6 -6 -6 -6 -6 -6 -6 -7 -7 -7 -7 -7 -7 -7 -7 -7 -7 -7 -6 -6 -6 -6 -6 -6 -6 -6 -6 -5 -5 -5 -5 -5 -5 -5 -5 -5 -5 -5 -6
Wind_Speed
5 5 4 4 4 4 4 4 5 5 6 7 7 9 10 10 11 11 12 12 14 14 13 14 15 13 10 9 9 9 9 9 9 7 4 5 9 9 9 11 11 12 12
6 6 5 5 4 3 3 4 4 6 6 6 7 8 8 9 10 11 12 12 13 14 14 14 14 12 13 11 10 11 10 10 9 9 5 5 7 9 9 9 9 10 10
7 6 6 6 5 4 3 3 3 4 5 5 6 7 7 7 8 9 10 11 12 13 13 14 14 13 15 12 12 12 10 9 8 8 7 5 4 6 7 7 7 7 8
8 8 8 7 7 5 4 4 3 3 4 5 5 6 6 7 7 8 8 9 10 11 11 12 13 14 15 14 13 13 11 11 10 8 7 6 5 5 7 7 7 7 7
8 8 8 8 7 6 5 5 4 4 3 3 4 4 5 5 6 7 8 8 9 10 10 10 11 12 14 13 11 11 11 11 9 9 8 6 6 7 9 7 7 6 6
8 8 8 8 7 7 7 6 6 5 4 3 3 3 4 3 4 6 6 7 7 8 8 8 8 10 11 12 13 13 13 12 11 10 8 10 11 10 9 8 7 6 6
8 8 8 7 7 7 6 6 6 5 5 4 4 4 4 5 6 6 6 6 6 6 7 7 7 7 9 10 10 11 13 14 14 12 11 12 11 11 11 11 10 9 6
7 8 8 7 7 6 6 6 6 5 5 5 5 5 5 6 8 8 7 6 6 6 7 7 7 8 7 8 8 9 10 11 12 11 11 11 10 10 12 12 10 6 1
7 8 8 7 7 7 7 7 6 6 5 5 5 5 5 6 7 8 7 5 5 6 6 7 7 7 8 8 8 9 8 7 7 8 7 7 8 10 10 8 8 7 4
7 7 7 7 7 6 7 6 6 5 5 4 4 5 5 6 8 8 8 4 4 5 5 6 6 7 8 7 8 8 9 7 5 4 4 5 6 9 12 11 11 10 5
6 7 7 7 7 7 6 6 6 5 5 4 5 5 5 5 7 7 8 4 5 5 5 5 5 7 8 7 7 8 8 5 5 5 4 4 4 5 6 5 6 8 6
6 6 7 7 7 6 6 6 6 6 5 5 5 5 5 5 6 7 7 6 6 5 5 5 4 5 6 6 6 5 5 4 3 3 4 4 4 4 4 4 4 3 3
5 6 6 7 6 6 6 6 6 5 5 5 5 5 6 5 6 8 8 7 7 4 5 5 5 4 4 4 3 2 3 3 4 4 4 3 3 3 4 4 5 7 7
5 5 5 6 6 6 6 5 5 6 5 5 5 6 6 6 6 6 6 6 6 5 4 4 3 2 2 2 1 1 1 2 3 4 4 3 3 4 4 4 4 5 5
4 5 5 5 5 6 5 5 6 5 6 6 6 6 6 6 8 10 8 6 5 5 5 3 3 2 2 2 1 1 1 1 1 2 3 3 4 4 3 4 4 4 4
4 4 4 4 5 5 5 5 5 5 8 8 8 8 7 8 11 10 9 9 8 6 3 2 3 3 2 2 2 2 1 1 1 2 3 4 4 5 4 4 4 5 5
4 4 4 4 4 5 5 5 6 6 6 6 8 10 9 10 10 10 9 8 7 4 2 2 2 3 3 2 2 2 2 2 1 1 2 4 4 4 5 5 5 5 5
4 4 4 4 4 5 5 5 5 6 7 6 7 9 11 11 11 10 9 6 4 4 3 3 3 3 3 2 2 2 2 1 1 1 2 3 3 4 4 5 5 6 5
4 4 4 4 4 4 5 5 5 6 6 7 7 7 9 10 9 9 7 4 4 4 4 4 3 3 3 3 2 2 2 2 1 1 2 2 3 4 4 4 5 6 5
4 5 4 4 4 4 4 5 5 5 6 6 6 6 7 7 6 6 5 4 4 4 4 4 4 3 3 3 3 2 2 2 2 2 2 2 3 4 4 5 5 5 5
4 4 4 4 4 4 4 5 5 5 5 6 6 7 9 6 5 5 5 4 4 4 5 4 4 4 3 3 3 3 2 2 2 2 2 3 3 3 4 4 5 5 5
3 3 4 4 4 4 5 5 5 5 6 6 6 6 8 5 5 5 4 5 5 4 4 4 4 4 3 3 3 3 3 3 2 2 2 3 3 3 4 4 4 5 6
4 4 4 4 4 5 5 4 4 5 5 5 5 5 5 5 5 5 5 5 5 5 5 4 4 3 3 3 3 2 2 3 3 3 3 3 3 4 4 4 6 6 6
4 4 4 4 4 4 4 4 4 4 5 5 5 5 5 5 5 5 5 4 5 5 5 5 4 4 5 4 3 2 2 2 2 3 4 4 4 4 4 4 5 6 6
4 4 4 4 3 4 4 4 4 4 4 4 4 4 4 4 5 5 4 4 5 5 5 5 5 5 5 5 4 4 3 2 2 2 3 4 4 5 5 5 5 6 6
4 4 3 3 3 3 3 4 4 4 4 4 4 4 4 4 4 4 4 4 4 4 5 5 6 6 7 6 5 5 4 3 1 1 2 3 4 4 5 5 6 6 7
Wind_Direction
343 337 336 324 301 284 266 252 251 251 247 245 241 237 235 234 231 230 231 230 230 230 230 232 233 231 230 226 223 225 228 230 243 248 241 221 209 208 206 207 206 203 204
350 350 348 338 325 304 301 281 263 255 249 250 246 241 238 238 236 235 235 234 234 233 232 231 233 229 230 228 225 227 229 229 236 242 237 221 222 211 206 208 207 206 204
357 1 1 354 350 335 315 301 287 269 257 255 247 242 242 241 241 241 242 240 239 238 235 234 234 231 229 228 228 228 229 231 232 235 234 227 224 207 207 211 208 208 206
1 6 4 358 355 347 337 326 306 290 275 265 257 250 248 245 242 244 247 247 245 243 241 239 236 234 234 230 228 228 227 227 226 225 226 220 215 206 200 204 208 208 208
2 5 359 356 359 1 360 353 349 339 310 286 278 269 263 257 251 252 250 249 250 250 244 244 242 237 238 234 230 228 225 226 225 226 226 220 213 202 205 202 209 201 210
2 0 356 357 2 4 2 360 358 350 348 347 336 324 315 300 298 287 273 258 252 250 250 249 250 241 240 238 234 231 227 225 223 225 228 225 221 213 205 201 197 197 215
1 360 358 358 2 360 359 358 354 347 348 352 348 346 336 333 330 314 306 283 267 257 252 249 251 250 244 239 236 233 232 233 229 225 228 229 221 211 200 201 202 203 210
358 359 359 358 358 357 359 356 350 346 347 344 343 339 330 334 342 333 320 285 279 273 264 256 252 251 251 240 237 236 236 235 233 231 231 228 221 210 201 201 201 186 114
355 354 353 354 354 354 353 349 347 346 344 341 333 331 325 327 340 335 327 298 287 284 275 264 258 255 258 243 234 235 239 242 240 240 241 230 209 200 193 182 176 179 200
344 343 345 347 349 348 343 340 339 338 332 330 326 325 323 325 336 335 326 300 296 296 290 280 267 266 265 250 236 232 235 240 233 233 229 215 203 195 191 194 188 187 182
336 340 345 346 344 341 338 338 337 335 331 329 326 325 323 322 329 334 330 311 300 295 290 285 281 280 269 253 248 239 237 231 218 211 210 205 193 189 193 196 192 187 182
338 344 346 346 347 342 341 340 338 335 332 331 327 324 322 322 326 329 329 322 315 297 290 285 287 290 280 264 256 248 219 198 196 189 190 199 190 184 175 161 144 133 127
339 342 341 343 345 345 343 342 342 340 336 332 328 323 324 326 327 331 327 320 316 300 290 294 296 295 287 270 258 243 198 188 186 190 194 200 186 162 145 127 108 100 86
331 332 335 338 340 343 343 340 339 337 332 329 325 319 319 322 326 326 319 309 305 301 296 296 291 276 269 277 252 222 227 217 202 197 188 169 147 143 149 142 137 132 114
321 324 327 332 333 335 334 332 331 334 333 326 323 320 318 315 322 327 321 311 308 301 304 306 320 325 318 306 293 277 258 230 206 177 166 159 150 147 148 142 140 144 146
308 314 320 323 326 326 324 323 324 322 332 334 334 328 319 320 326 326 320 321 320 314 301 288 295 297 290 286 278 279 270 244 223 185 173 168 163 160 155 151 151 155 155
291 301 307 311 315 317 319 322 324 325 323 330 336 338 335 331 335 337 333 327 326 316 297 296 289 286 282 276 274 273 276 278 257 195 176 168 163 162 162 162 161 160 160
281 286 293 299 304 307 311 314 316 318 320 322 328 334 338 338 335 338 337 333 331 328 310 303 298 293 289 281 276 281 280 273 258 223 181 165 162 163 165 169 169 168 165
272 281 288 294 297 300 305 307 307 308 308 312 319 326 334 333 331 336 340 334 323 318 313 307 301 295 293 286 277 267 257 243 242 228 196 176 171 167 170 171 168 165 165
261 273 284 289 292 296 300 302 304 305 306 309 315 321 328 331 333 336 335 330 320 313 308 305 302 297 290 282 273 258 246 242 230 216 198 183 178 175 174 172 171 171 173
259 266 271 281 286 292 296 298 300 301 303 306 310 319 328 325 324 327 330 328 319 312 309 306 304 300 294 286 272 258 249 237 222 207 197 192 187 182 177 173 171 170 166
252 261 268 276 284 289 294 297 300 301 304 306 313 318 324 325 323 324 327 326 323 317 310 303 298 296 293 287 276 262 249 235 215 199 197 199 193 184 175 170 169 166 165
244 255 263 269 278 286 290 295 299 301 304 307 312 319 322 322 322 324 326 329 331 331 329 323 316 314 313 304 287 254 239 234 219 204 198 200 193 184 176 172 171 170 172
238 248 256 264 272 279 286 292 298 303 304 307 311 315 318 319 322 326 329 332 335 337 339 336 331 336 337 329 319 306 277 270 243 209 198 194 191 185 178 176 175 175 174
234 242 251 259 265 274 282 288 295 304 308 310 313 317 320 324 327 330 333 336 337 341 345 344 341 344 344 339 334 329 319 306 268 222 198 189 188 185 179 176 175 172 172
229 238 247 255 261 269 277 284 292 301 304 309 313 316 319 321 324 327 331 336 337 339 342 344 347 349 346 344 341 342 341 337 321 223 197 183 182 180 175 173 172 175 173
Height
1435 1434 1433 1433 1433 1433 1433 1435 1436 1438 1440 1441 1443 1444 1446 1447 1449 1450 1452 1454 1456 1457 1459 1461 1462 1465 1466 1467 1470 1472 1474 1476 1475 1475 1476 1477 1478 1479 1481 1482 1483 1484 1485
1434 1433 1432 1431 1430 1429 1430 1431 1433 1434 1435 1436 1437 1439 1440 1441 1442 1443 1445 1446 1448 1449 1450 1452 1454 1456 1458 1460 1461 1463 1465 1467 1468 1467 1467 1468 1470 1471 1473 1474 1475 1477 1478
1433 1432 1430 1428 1427 1427 1428 1428 1429 1430 1430 1431 1432 1433 1434 1435 1436 1437 1438 1439 1440 1441 1442 1444 1445 1447 1449 1451 1453 1454 1456 1458 1459 1460 1459 1460 1461 1463 1464 1466 1467 1469 1471
1432 1430 1428 1427 1426 1425 1425 1425 1425 1426 1426 1427 1428 1428 1428 1429 1430 1430 1431 1432 1432 1433 1434 1435 1437 1439 1440 1442 1443 1445 1447 1449 1450 1451 1451 1452 1453 1454 1456 1457 1459 1461 1463
1432 1430 1428 1426 1424 1423 1422 1422 1422 1422 1422 1423 1423 1423 1423 1424 1424 1424 1425 1425 1425 1426 1426 1427 1428 1430 1431 1433 1434 1436 1438 1439 1441 1441 1442 1443 1443 1445 1446 1449 1451 1453 1455
1433 1430 1428 1425 1423 1422 1421 1420 1420 1420 1419 1419 1419 1418 1418 1418 1419 1419 1419 1419 1419 1419 1419 1420 1421 1422 1423 1425 1426 1427 1429 1430 1431 1432 1433 1433 1434 1436 1439 1441 1443 1445 1447
1434 1431 1428 1425 1423 1422 1421 1420 1419 1418 1417 1417 1416 1415 1415 1415 1415 1414 1414 1414 1413 1413 1413 1414 1414 1415 1416 1416 1417 1418 1420 1421 1423 1424 1424 1425 1427 1428 1431 1433 1435 1437 1438
1435 1432 1429 1427 1424 1423 1421 1420 1419 1417 1416 1414 1413 1413 1412 1411 1410 1410 1409 1408 1408 1407 1407 1408 1408 1408 1408 1409 1410 1410 1411 1412 1414 1416 1417 1418 1419 1421 1423 1425 1427 1430 1432
1435 1432 1430 1427 1425 1423 1421 1420 1418 1416 1415 1413 1412 1410 1409 1408 1407 1405 1405 1404 1403 1402 1402 1402 1402 1402 1402 1403 1403 1403 1403 1404 1406 1408 1409 1410 1412 1414 1416 1418 1420 1422 1424
1435 1432 1430 1427 1425 1423 1421 1419 1417 1415 1414 1412 1410 1409 1407 1405 1404 1402 1401 1400 1398 1397 1397 1397 1397 1397 1396 1396 1396 1396 1396 1397 1398 1399 1401 1403 1404 1406 1408 1410 1412 1414 1416
1435 1432 1430 1427 1424 1422 1420 1418 1416 1414 1412 1410 1408 1406 1405 1403 1401 1399 1398 1396 1394 1393 1392 1391 1391 1391 1391 1390 1390 1390 1389 1390 1391 1392 1394 1395 1396 1398 1400 1402 1405 1408 1410
1433 1431 1428 1425 1423 1420 1418 1416 1414 1412 1410 1407 1405 1403 1402 1400 1398 1396 1394 1393 1392 1390 1388 1387 1386 1386 1386 1385 1384 1384 1384 1384 1384 1385 1386 1388 1389 1391 1393 1396 1398 1402 1405
1432 1429 1427 1424 1421 1419 1416 1413 1411 1409 1407 1405 1403 1401 1399 1397 1395 1393 1391 1390 1388 1387 1385 1383 1382 1381 1381 1380 1379 1378 1378 1377 1378 1379 1380 1382 1384 1386 1388 1390 1393 1397 1399
1430 1427 1425 1422 1420 1417 1414 1412 1409 1407 1405 1403 1400 1398 1396 1394 1392 1390 1388 1386 1384 1383 1381 1380 1379 1377 1377 1376 1375 1375 1374 1374 1373 1374 1375 1377 1380 1382 1384 1386 1388 1391 1394
1428 1426 1423 1421 1418 1416 1413 1411 1408 1406 1403 1401 1399 1397 1394 1391 1390 1388 1385 1383 1381 1380 1378 1377 1375 1374 1372 1372 1371 1371 1371 1371 1370 1371 1371 1373 1375 1378 1381 1383 1385 1388 1390
1426 1424 1421 1419 1416 1414 1411 1409 1406 1404 1401 1399 1396 1394 1391 1389 1387 1384 1382 1380 1378 1377 1375 1373 1372 1370 1370 1369 1368 1368 1368 1368 1367 1368 1368 1370 1372 1374 1377 1380 1382 1385 1387
1424 1422 1419 1417 1415 1412 1409 1406 1404 1401 1399 1397 1394 1391 1388 1385 1383 1380 1378 1376 1375 1374 1372 1370 1369 1368 1367 1367 1366 1365 1365 1365 1365 1365 1365 1367 1369 1371 1374 1376 1379 1381 1384
1421 1419 1417 1415 1412 1410 1407 1405 1402 1398 1396 1393 1391 1388 1385 1382 1379 1377 1375 1373 1371 1370 1368 1367 1366 1366 1365 1364 1363 1363 1362 1362 1362 1363 1363 1364 1366 1368 1370 1373 1376 1378 1381
1418 1416 1414 1412 1410 1407 1405 1402 1399 1396 1393 1390 1387 1384 1382 1379 1376 1374 1371 1369 1368 1366 1365 1365 1364 1363 1362 1362 1361 1361 1361 1360 1361 1361 1362 1363 1364 1366 1368 1370 1373 1376 1379
1414 1413 1411 1409 1407 1404 1402 1399 1396 1394 1391 1388 1385 1382 1379 1376 1373 1370 1368 1367 1365 1364 1363 1362 1361 1360 1360 1359 1359 1359 1358 1358 1359 1359 1360 1361 1362 1364 1366 1368 1371 1373 1376
1411 1409 1407 1405 1403 1401 1399 1396 1393 1391 1388 1385 1382 1380 1377 1374 1371 1369 1367 1365 1363 1362 1361 1360 1359 1358 1357 1356 1356 1356 1356 1356 1357 1358 1358 1359 1361 1363 1365 1367 1369 1371 1374
1407 1405 1404 1402 1400 1398 1395 1393 1390 1388 1385 1382 1379 1377 1374 1372 1369 1367 1365 1363 1361 1360 1359 1357 1356 1355 1354 1354 1353 1353 1353 1354 1355 1356 1357 1358 1359 1361 1363 1365 1367 1370 1372
1403 1402 1400 1398 1396 1394 1392 1390 1387 1385 1382 1379 1377 1374 1372 1369 1367 1365 1363 1361 1359 1358 1357 1355 1354 1353 1352 1352 1351 1351 1351 1352 1353 1354 1355 1356 1358 1359 1361 1363 1365 1368 1370
1399 1397 1396 1394 1393 1391 1389 1386 1384 1382 1379 1377 1374 1372 1370 1368 1365 1363 1361 1360 1358 1357 1355 1354 1353 1351 1351 1350 1349 1349 1350 1350 1351 1352 1353 1354 1356 1357 1359 1361 1363 1366 1368
1394 1393 1392 1391 1389 1387 1385 1383 1381 1379 1377 1374 1372 1370 1368 1366 1364 1362 1360 1358 1357 1355 1354 1353 1351 1350 1349 1348 1348 1347 1348 1348 1349 1350 1351 1352 1354 1356 1357 1360 1362 1364 1366
1390 1389 1388 1387 1385 1384 1382 1380 1378 1376 1374 1372 1370 1368 1366 1364 1362 1360 1359 1357 1355 1354 1353 1352 1350 1349 1348 1347 1347 1346 1346 1346 1347 1348 1349 1350 1352 1354 1356 1358 1360 1362 1364